Regional Weather Roundup
Issued by NWS

Home | Current Version | Previous Version | Text Only | Print | Product List | Glossary On
Versions: 1 2 3 4 5 6 7 8 9 10 11 12 13 14 15 16 17 18 19 20 21 22 23 24 25 26 27 28 29 30 31 32 33 34 35 36 37 38 39 40 41 42 43 44 45 46 47 48 49 50
000
ASUS45 KBOU 280007
RWRCO

WEATHER ROUNDUP FOR COLORADO
NATIONAL WEATHER SERVICE DENVER/BOULDER CO
600 PM MDT THU AUG 27 2015

NOTE: "FAIR" INDICATES FEW OR NO CLOUDS BELOW 12000 FEET WITH NO
SIGNIFICANT WEATHER AND/OR OBSTRUCTIONS TO VISIBILITY.

COZ001>005-013-030-031-280100-
...NORTHWEST COLORADO...

CITY           SKY/WX    TMP DP  RH WIND       PRES   REMARKS
CRAIG          MOSUNNY   78  47  33 W12G18    30.21F
HAYDEN         NOT AVBL
MEEKER         MOSUNNY   76  52  43 E7        30.24F
MOUNT WERNER   NOT AVBL
STEAMBOAT SPGS MOSUNNY   68  55  62 E6        30.28S
WALDEN         CLOUDY    61  46  59 N3        30.36R
$$

COZ006>008-011-280100-
...WEST CENTRAL VALLEYS...

CITY           SKY/WX    TMP DP  RH WIND       PRES   REMARKS
GRAND JUNCTION MOSUNNY   81  54  39 CALM      30.13F
MONTROSE       MOSUNNY   80  51  36 N9        30.23F
EAGLE          PTSUNNY   68  55  64 E7        30.30S
RIFLE          PTSUNNY   68  57  68 CALM      30.23S
DELTA          MOSUNNY   85  52  32 CALM      30.17R
NUCLA          MOSUNNY   81  45  28 W12G17    30.25S
$$

COZ017>023-064>068-280100-
...SOUTHWEST COLORADO...

CITY           SKY/WX    TMP DP  RH WIND       PRES   REMARKS
DURANGO        MOSUNNY   75  49  39 W13       30.25F
CORTEZ         MOSUNNY   80  50  34 NW6       30.22S
PAGOSA SPRINGS MOSUNNY   67  53  59 CALM      30.35F
TELLURIDE      PTSUNNY   64  47  52 NW5       30.47S
WOLF CREEK PAS FOG       46  46 100 SW7       30.66S VSB 1/4
$$

COZ009-010-012-014-032>034-037-058>063-280100-
...CENTRAL COLORADO...

CITY           SKY/WX    TMP DP  RH WIND       PRES   REMARKS
ASPEN          PTSUNNY   64  52  64 SW5       30.37S
BUENA VISTA    CLOUDY    70  46  42 W14G22    30.33S
COPPER MTN     CLOUDY    46  39  76 W16       30.64F
BERTHOUD PASS  HAZE      39  28  65 MISG      30.63R VSB 1/4
COTTONWOOD PAS PTSUNNY   63  45  51 W14G24    30.47F
GUNNISON       PTSUNNY   70  48  46 N9        30.36S
KREMMLING      DRIZZLE   61  52  72 W5        30.35S
LEADVILLE      LGT RAIN  51  48  89 N17G29    30.50R
MONARCH PASS   MOSUNNY   46  45  93 W18       30.73S
SALIDA         CLOUDY    73  46  38 SW8G16    30.36S
SUNLIGHT       CLOUDY    54  52  94 CALM      30.61R FOG
WILKERSON PASS PTSUNNY   54  41  62 N12G24    30.59R
$$

COZ069>075-280100-
...SAN LUIS VALLEY/SANGRE DE CRISTO MOUNTAINS...

CITY           SKY/WX    TMP DP  RH WIND       PRES   REMARKS
ALAMOSA        CLOUDY    71  47  42 N12       30.29S
LA VETA PASS   PTSUNNY   61  41  48 SW3       30.48S
SAGUACHE       PTSUNNY   73  46  38 N20G25    30.33S
$$

COZ035-036-038>040-280100-
...NORTHERN COLORADO FRONT RANGE...

CITY           SKY/WX    TMP DP  RH WIND       PRES   REMARKS
DENVER INTL AP CLOUDY    77  51  40 N18       30.14S
DMNS CITY PARK   N/A     76  53  44 NE13G20   30.14F
AURORA         PTSUNNY   68  60  76 W2        30.18S
FRONT RANGE AP PTSUNNY   73  50  43 NW9       30.16R
ERIE MUNI ARPT PTSUNNY   73  58  57 CALM      30.13S
BOULDER MUN AP PTSUNNY   73  55  53 SW3       30.15R
CENTENNIAL     CLOUDY    68  57  68 N13       30.19R
BROOMFIELD     PTSUNNY   73  55  53 N6        30.18R
FORT COLLINS   PTSUNNY   77  54  44 NW10      30.12S
LONGMONT       PTSUNNY   76  58  53 CALM      30.14S
$$

COZ041-046-047-076>085-087-088-280100-
...PIKES PEAK/PALMER DIVIDE AND SOUTHERN FOOTHILLS...

CITY           SKY/WX    TMP DP  RH WIND       PRES   REMARKS
COLO. SPRINGS  TSTM      68  56  65 N20G29    30.21R
A. F. ACADEMY  PTSUNNY   65  56  72 N16G24    30.24R
ELLICOTT       PTSUNNY  N/A N/A N/A E9        30.15R THUNDER
FALCON         HVY RAIN  59  55  87 MISG        N/A  VSB 1/4
FORT CARSON    TSTM      68  59  73 NE18G25   30.15R
LIMON          CLOUDY    76  50  40 N22G30    30.12R
MONUMENT HILL  TSTM      59  54  82 N10       30.29R
TRINIDAD       TSTM      75  52  44 NW17      30.10R
$$

COZ042>045-048>051-090-091-280100-
...NORTHEAST COLORADO...

CITY           SKY/WX    TMP DP  RH WIND       PRES   REMARKS
GREELEY ARPT   CLOUDY    79  54  41 N6        30.10S
AKRON          PTSUNNY   78  56  46 N25G36    30.06R
BURLINGTON     CLOUDY    88  47  24 NW15      29.99R
WRAY           MOSUNNY   74  63  69 N15G21    29.96R
STERLING       PTSUNNY   81  57  44 NE12G18   30.01R
HOLYOKE        MOSUNNY   86  59  39 N20       29.97R
FORT MORGAN    PTSUNNY   66  61  82 N8        30.08F THUNDER
$$

COZ086-089-092>099-280100-
...SOUTHEAST COLORADO...

CITY           SKY/WX    TMP DP  RH WIND       PRES   REMARKS
PUEBLO         MOSUNNY   87  50  27 NE13      30.01S
LA JUNTA       LGT RAIN  76  62  62 NE17      29.98F
LAMAR          MOSUNNY   89  54  30 NE10G17   29.92S
SPRINGFIELD      N/A     90  46  21 CALM      29.97F
$$



USA.gov is the U.S. government's official web portal to all federal, state and local government web resources and services.